Overview Statistics Trail Chart Weather Telemetry Raw packets
 

This is the latest recevied weather packets stored in our database for station/object N0QV. If no packets are shown the sender has not sent any weather packets the latest 10 day(s).

<< 59 60 61 62 63 64 65 >>
Time Temp. Humidity Pressure Rain* Wind** Luminosity Snow
1788267431 17.78° C 94% 1015.1 hPa 0 mm - 41 W/m² -
1788267127 17.22° C 94% 1015.2 hPa 0 mm - 44 W/m² -
1788266821 17.22° C 94% 1015.3 hPa 0 mm - 40 W/m² -
1788266521 17.22° C 94% 1015.3 hPa 0 mm - 39 W/m² -
1788266215 17.22° C 95% 1015.3 hPa 0 mm - 38 W/m² -
1788265915 16.67° C 95% 1015.2 hPa 0 mm - 36 W/m² -
1788265615 16.67° C 95% 1014.9 hPa 0 mm - 32 W/m² -
1788265309 16.67° C 94% 1015.1 hPa 0 mm - 25 W/m² -
1788265003 16.67° C 94% 1015.1 hPa 0 mm - 23 W/m² -
1788264699 16.67° C 94% 1014.8 hPa 0 mm - 17 W/m² -
1788264398 16.67° C 94% 1015.1 hPa 0 mm - 13 W/m² -
1788264093 16.67° C 94% 1014.9 hPa 0 mm - 10 W/m² -
1788263789 16.67° C 94% 1015.1 hPa 0 mm - 6 W/m² -
1788263485 16.67° C 95% 1014.9 hPa 0 mm - 4 W/m² -
1788263182 16.67° C 95% 1014.9 hPa 0 mm - 3 W/m² -
1788262880 16.67° C 95% 1015 hPa 0 mm - 1 W/m² -
1788262580 16.67° C 95% 1014.9 hPa 0 mm - 1 W/m² -
1788262275 16.67° C 95% 1014.9 hPa 0 mm - 0 W/m² -
1788261975 16.67° C 95% 1014.6 hPa 0 mm - 0 W/m² -
1788261669 16.67° C 95% 1014.6 hPa 0 mm - 0 W/m² -
1788261369 16.67° C 95% 1014.8 hPa 0 mm - 0 W/m² -
1788261067 16.67° C 95% 1014.8 hPa 0 mm - 0 W/m² -
1788260763 16.67° C 95% 1014.7 hPa 0 mm - 0 W/m² -
1788260466 16.67° C 94% 1014.4 hPa 0 mm - 0 W/m² -
1788260155 16.67° C 95% 1014.5 hPa 0 mm - 0 W/m² -

* Rain latest hour (hover to see other rain measurements)
** Current wind speed in m/s (hover to see current wind gust speed)